Wind_Speed
36 36 34 32 33 33 30 28 26 26 26 26 25 23 21 20 18 19 19 18 17 16 16 14 14 14 13 13 12 10 12 11 8 8 7 6 6 6 5 5 5 5
38 37 36 34 33 32 32 31 29 28 27 28 27 25 23 21 20 20 20 20 19 17 17 16 16 16 15 15 15 14 13 13 11 9 8 7 6 6 6 6 6 6
39 38 38 36 35 33 32 32 31 31 29 29 28 27 26 24 23 22 21 21 21 19 18 18 18 18 18 17 17 16 15 15 14 12 10 8 8 8 8 8 7 7
42 40 39 39 37 35 32 32 32 32 31 30 29 28 26 26 25 24 23 23 24 22 19 19 20 20 19 18 17 16 15 15 15 14 13 11 10 10 9 8 7 7
43 42 41 40 39 37 34 33 32 32 31 31 30 28 26 26 26 26 25 24 24 24 21 20 21 21 20 18 18 17 16 15 14 14 14 13 12 11 11 10 10 9
42 42 42 41 39 39 37 35 34 33 33 32 31 30 28 27 27 27 27 26 25 25 24 22 22 23 21 20 20 20 18 17 15 14 14 15 15 13 12 11 11 11
41 42 42 42 40 39 39 38 37 35 34 33 32 32 30 29 28 29 29 28 27 26 26 25 25 24 23 22 21 22 21 20 17 16 16 15 15 15 14 12 12 12
41 42 42 41 41 40 40 40 39 38 36 35 33 33 32 31 30 30 30 31 30 29 28 27 26 26 25 24 24 23 23 22 20 19 18 17 16 16 16 15 14 14
40 41 41 41 41 40 40 41 41 40 39 37 35 34 32 33 32 31 31 32 33 32 30 29 27 27 26 26 26 25 25 24 23 22 21 20 19 17 16 17 17 16
39 40 41 41 41 41 41 41 41 41 40 38 37 36 34 33 34 33 33 32 33 33 33 32 30 29 28 29 29 27 26 26 25 24 23 22 21 20 18 18 19 19
39 40 41 42 42 42 42 42 41 40 40 40 38 37 36 35 34 35 35 34 34 34 34 33 33 32 31 31 31 29 28 27 26 25 25 24 23 22 21 20 19 20
39 40 41 42 43 42 42 42 41 40 40 40 40 38 36 36 36 36 37 37 36 35 34 34 34 34 33 33 33 31 29 29 27 26 25 25 25 24 23 22 21 20
39 40 41 42 43 42 42 41 41 40 40 40 40 39 37 36 37 37 37 38 38 36 35 35 35 35 35 34 34 33 31 30 29 28 27 26 26 26 25 25 23 22
39 40 41 42 43 42 41 41 41 41 40 40 40 40 39 38 37 38 38 38 39 38 37 36 35 35 36 35 34 34 32 31 31 30 29 28 27 26 26 26 25 24
38 38 39 40 41 42 41 40 41 41 40 40 40 41 41 40 38 37 38 38 38 39 39 37 35 35 36 36 36 35 34 33 32 31 30 30 29 28 27 26 26 25
37 37 38 39 40 42 42 41 40 41 40 40 40 41 41 40 38 37 38 39 38 38 38 37 36 36 36 36 37 37 36 34 32 32 31 30 30 30 29 28 28 27
36 36 37 38 40 41 43 43 41 40 40 40 40 41 40 40 39 37 37 39 39 38 38 38 37 37 37 37 37 37 36 35 33 32 32 32 30 30 30 30 29 29
36 37 37 38 40 41 42 43 42 40 41 40 39 40 40 39 39 38 36 37 39 38 37 38 38 37 38 38 38 38 37 36 34 33 32 33 32 31 31 30 30 29
36 36 38 38 39 41 41 42 42 40 41 41 39 40 40 39 40 39 36 35 38 39 38 37 38 38 38 38 37 38 38 37 36 33 32 33 33 33 32 31 30 30
37 36 38 39 38 39 39 40 41 41 41 42 40 39 40 40 39 40 38 35 36 39 38 37 37 38 37 37 36 37 38 38 38 35 33 32 32 33 33 33 32 31
37 39 38 38 37 37 38 39 41 41 40 40 39 39 40 41 40 39 39 36 34 37 39 37 37 38 38 36 36 36 36 38 38 36 34 32 31 32 33 34 33 33
37 40 39 38 38 37 37 39 40 41 40 39 38 37 38 39 39 39 40 39 35 35 37 37 36 37 37 37 36 36 35 37 38 36 34 33 32 31 31 32 33 33
39 41 40 39 38 38 38 39 40 41 41 38 37 36 36 37 39 38 39 40 38 35 34 36 36 36 37 37 36 36 35 36 38 37 35 34 33 32 31 30 31 33
38 42 42 40 39 40 40 40 39 40 41 39 37 36 36 36 37 37 37 39 40 38 35 34 34 35 37 37 36 36 36 37 38 38 37 36 35 33 31 28 27 29
35 39 42 41 41 41 40 39 39 38 39 40 38 36 35 35 35 36 36 36 38 40 39 36 33 32 33 35 37 37 36 37 39 38 37 37 37 36 34 32 29 27
34 38 41 42 42 42 40 39 38 37 37 38 38 35 33 33 34 35 35 35 36 37 38 38 36 33 31 31 34 37 38 39 39 39 38 38 38 37 35 35 36 34
Wind_Direction
192 191 189 189 190 193 193 192 191 188 187 189 189 191 194 197 198 198 201 206 205 201 201 201 200 200 196 200 206 192 184 192 198 202 205 202 198 195 203 223 224 225
194 193 192 191 192 194 197 198 198 196 195 197 198 196 195 198 201 202 203 205 207 207 203 200 202 203 200 201 208 203 190 191 196 197 207 213 205 202 212 225 230 236
196 195 195 195 194 195 198 200 201 202 201 202 204 204 201 199 200 204 207 206 207 209 206 204 205 208 208 206 209 212 206 203 203 198 202 216 218 214 215 223 232 234
198 198 198 199 198 198 198 199 201 203 205 204 206 208 207 204 202 204 208 209 207 207 207 206 207 211 213 211 210 213 212 212 213 205 202 212 219 218 217 220 230 235
200 200 200 201 201 200 199 199 201 203 205 206 206 208 210 208 205 203 206 209 207 208 208 207 209 212 215 212 207 210 213 214 215 210 206 209 212 216 220 220 224 235
201 201 201 202 202 202 201 201 203 204 206 208 207 207 209 209 207 204 204 207 206 207 208 207 208 211 214 213 208 209 213 212 214 214 213 214 213 213 218 219 220 228
202 203 203 203 203 203 203 204 205 206 207 209 209 209 208 208 208 207 205 205 206 207 208 208 208 209 213 215 211 210 212 212 213 216 219 222 220 215 213 215 220 226
204 203 203 203 203 204 205 206 207 208 209 209 209 210 210 209 210 212 209 206 205 206 208 210 211 211 212 214 214 213 213 212 212 215 221 226 227 222 215 213 221 229
205 204 203 203 203 204 206 207 208 209 210 210 210 211 211 211 212 213 212 208 206 206 208 210 212 214 214 215 216 216 215 214 212 213 220 225 227 229 224 217 219 225
206 205 204 203 203 204 206 207 208 210 210 211 212 211 211 211 211 212 212 210 207 207 208 209 212 215 216 216 217 217 217 217 214 213 217 223 226 230 231 226 222 222
206 205 204 203 203 204 205 207 208 209 211 212 212 211 211 211 211 211 211 210 208 207 208 208 210 214 215 215 216 217 218 218 218 216 217 220 224 228 232 233 230 226
205 205 205 204 204 204 205 206 207 208 210 211 212 211 211 211 211 210 211 211 210 209 208 209 210 212 215 215 214 215 218 218 219 218 217 219 224 227 229 233 235 234
205 205 205 205 205 205 205 205 206 207 209 210 211 211 210 210 211 210 211 211 211 210 210 211 211 211 214 215 213 214 216 218 219 219 218 219 223 226 228 231 235 236
205 206 206 205 205 205 205 205 205 206 208 209 210 210 210 210 210 210 210 211 212 212 211 212 212 211 213 214 214 213 215 217 218 218 218 218 222 226 228 229 233 235
205 206 206 206 205 205 205 205 206 206 207 208 209 210 210 210 210 210 209 209 211 212 212 212 212 212 213 214 214 213 213 216 217 217 218 218 219 223 227 229 231 233
205 205 206 206 205 205 205 205 206 206 206 207 208 209 210 210 210 210 209 208 208 210 211 211 212 213 214 215 215 215 214 214 216 217 218 219 219 221 224 227 229 231
203 204 205 206 206 205 205 205 205 205 206 206 207 208 209 209 209 209 208 207 207 208 209 209 211 214 216 216 217 217 216 214 215 218 218 218 220 221 222 225 228 230
203 203 205 208 208 207 206 205 205 205 205 205 206 206 207 207 208 209 209 207 206 207 208 209 211 214 216 217 218 218 218 217 217 218 219 218 219 221 223 226 228 229
203 204 205 208 210 209 207 206 205 204 204 205 205 206 205 206 207 208 209 207 205 206 207 209 211 213 216 217 218 219 220 219 218 219 220 220 220 221 223 226 228 229
204 205 206 208 210 210 208 207 206 206 205 204 204 204 204 205 205 207 208 208 206 205 206 208 210 213 215 217 218 221 221 221 220 220 222 223 223 223 224 226 228 229
209 205 206 208 209 209 209 208 208 207 206 205 204 204 204 204 204 205 207 208 207 205 205 207 210 212 214 216 218 220 222 222 221 221 222 224 227 227 226 227 229 230
214 206 205 206 207 208 209 209 209 209 208 206 205 204 204 205 205 205 206 208 209 207 205 207 209 212 214 215 217 219 221 221 220 220 221 224 227 229 230 231 231 232
212 206 203 204 205 206 209 210 210 210 209 207 205 205 204 204 204 205 206 207 209 208 207 206 208 211 214 215 216 217 217 218 218 218 220 223 226 228 231 233 235 235
210 206 203 203 203 206 209 210 210 210 209 208 207 205 205 205 204 204 205 207 208 209 210 209 208 210 213 216 216 215 214 216 216 217 219 223 226 227 227 228 231 233
212 207 204 202 204 206 208 209 210 210 209 209 209 208 207 206 204 204 204 206 208 210 212 213 212 211 213 215 216 215 214 215 215 214 216 222 226 227 227 226 227 228
216 211 206 204 205 206 207 208 209 209 209 209 210 210 208 206 205 204 205 206 208 210 213 215 216 215 215 216 217 216 215 214 213 212 215 220 224 226 227 228 230 232
Height
820 822 824 826 828 830 832 834 835 837 838 839 841 842 843 845 846 847 848 850 851 852 854 855 856 857 858 859 859 860 861 861 862 862 863 863 863 864 864 864 865 865
818 820 822 824 826 828 830 832 833 835 836 838 839 840 842 843 845 846 847 848 849 851 852 853 854 856 857 858 858 859 860 860 861 861 862 862 862 863 863 864 864 865
815 817 820 822 823 826 827 829 831 833 835 836 837 839 840 842 843 844 845 846 847 849 850 851 853 854 855 856 857 858 858 859 860 860 861 861 861 862 862 863 863 864
811 814 816 819 821 823 825 827 829 831 832 834 835 837 839 840 841 842 843 844 845 847 848 849 851 852 853 854 855 856 857 858 858 859 860 860 860 861 861 862 862 862
807 810 812 815 818 820 823 824 826 828 830 832 833 835 837 838 839 840 842 843 843 845 846 847 849 850 851 852 853 854 855 856 856 857 858 858 859 859 860 860 861 861
804 806 809 812 814 817 819 821 823 824 826 828 831 833 834 836 837 838 839 841 842 843 844 845 847 848 849 850 851 852 853 854 855 856 856 857 857 858 858 859 859 860
801 803 806 808 811 814 816 818 820 821 823 825 827 830 832 833 835 836 837 838 840 841 842 843 844 845 847 848 849 850 851 852 853 854 854 855 855 856 857 857 858 858
797 800 802 805 808 810 812 814 817 818 820 822 824 826 828 830 832 833 834 836 837 839 840 841 842 843 844 845 846 848 849 850 851 852 852 853 853 854 854 855 856 856
794 796 799 801 804 806 808 810 813 815 817 819 821 823 825 827 829 830 832 833 834 836 837 839 840 841 842 843 844 845 846 847 849 849 850 851 851 852 852 853 854 854
790 793 795 797 799 802 804 806 809 811 814 816 818 820 821 823 825 827 829 830 831 833 834 836 837 838 840 841 841 842 844 845 846 847 848 848 849 849 850 851 852 852
786 788 791 792 794 797 799 802 805 807 810 812 814 816 818 820 822 823 825 826 827 829 831 832 834 835 836 837 838 840 841 842 844 845 846 846 847 848 848 849 849 850
781 784 786 788 790 792 795 798 801 804 806 808 810 812 814 816 818 819 821 823 824 826 827 828 830 832 833 834 836 837 838 840 841 842 843 844 845 846 846 847 847 848
776 779 781 784 786 789 791 794 797 799 802 804 806 809 811 812 814 816 817 819 821 822 824 825 827 829 830 831 833 834 836 837 838 840 841 842 843 843 844 845 845 846
771 775 778 780 783 785 788 790 792 795 797 799 802 804 806 808 810 812 813 815 817 819 821 822 824 826 827 829 830 831 833 834 835 836 838 839 840 841 842 843 843 844
768 772 775 778 780 782 784 787 788 791 794 796 798 800 802 804 806 808 810 811 813 815 817 819 821 822 824 825 827 828 829 831 832 833 835 836 837 838 839 840 841 842
765 769 772 775 777 778 780 782 785 788 790 792 794 795 798 800 802 804 805 807 809 811 813 815 817 819 820 822 823 825 826 828 829 830 832 833 834 836 837 838 838 839
763 766 769 772 773 775 776 778 781 784 786 788 789 791 794 796 799 800 801 803 805 807 809 811 813 815 816 818 820 822 824 825 826 828 829 830 832 833 834 834 835 836
760 763 766 768 770 772 773 775 777 779 781 784 786 788 790 792 795 797 798 799 801 803 805 806 808 810 812 814 817 819 821 822 824 825 826 828 829 830 830 831 832 833
758 760 762 765 767 769 771 773 774 776 777 779 781 784 786 788 790 793 794 796 797 799 800 802 804 806 808 811 813 815 817 819 821 822 823 824 826 827 828 828 829 830
755 757 758 761 764 767 769 770 772 772 773 775 777 780 782 784 786 788 790 792 793 795 797 798 800 802 804 807 809 811 813 815 817 819 820 821 822 823 824 825 826 827
752 752 754 757 760 764 766 767 768 769 770 772 774 776 777 779 782 784 786 789 790 791 793 795 796 798 801 803 805 807 810 812 814 816 818 819 820 820 821 822 823 824
747 747 748 752 756 759 762 763 765 766 767 769 771 772 774 776 778 780 782 785 787 788 789 791 793 795 797 799 801 803 806 809 811 813 815 816 817 817 818 819 820 821
740 741 742 746 750 753 756 758 760 762 764 766 768 769 771 772 774 776 778 780 783 784 786 787 789 791 793 795 797 800 803 805 807 809 811 812 813 814 815 815 816 817
733 735 737 740 743 746 749 753 756 759 761 763 765 765 767 768 770 772 775 776 778 780 782 784 786 787 789 791 793 796 799 801 803 805 807 808 809 810 811 812 813 813
729 731 732 734 737 740 744 749 752 755 758 760 762 763 764 766 768 769 771 772 774 776 778 780 782 784 786 788 790 792 795 797 799 801 802 803 804 805 807 808 809 810
725 727 728 729 731 735 740 745 749 752 755 757 759 761 762 763 764 766 767 769 771 773 774 777 779 780 783 784 786 788 790 792 794 796 797 798 799 801 802 804 805 806